Vancouver, British Columbia

1:18 AM PDT on May 27, 2017 (GMT -0700)
Vancouver International Airport

Weather History for CYVR - March, 2013

Change the Weather History Date:

Monday, March 11, 2013

  Actual Average Record
Temperature  
Mean Temperature 44 °F -  
Max Temperature 49 °F 52 °F 60 °F (1998)
Min Temperature 38 °F 38 °F 23 °F (2009)
Degree Days  
Heating Degree Days 22    
Moisture  
Dew Point 36 °F    
Average Humidity 72    
Maximum Humidity 81    
Minimum Humidity 58    
Precipitation  
Precipitation 0.08 in 0.13 in - ()
Sea Level Pressure  
Sea Level Pressure 30.36 in    
Wind  
Wind Speed 5 mph ()    
Max Wind Speed 17 mph    
Max Gust Speed -    
Visibility 13.2 miles    
Events Rain    
Averages and records for this station are not official NWS values.
T = Trace of Precipitation, MM = Missing Value Source: Averaged Metar Reports

Daily Weather History Graph

Daily Weather History Graph

Search for Another Location

Airport or City:

Trip Planner

Search our weather history database for the weather conditions in past years. The results will help you decide how hot, cold, wet, or windy it might be!

Date:

Astronomy

Mar. 11, 2013 Rise Set
Actual Time 7:33 AM PDT 7:12 PM PDT
Civil Twilight 7:02 AM PDT 7:43 PM PDT
Nautical Twilight 6:25 AM PDT 8:20 PM PDT
Astronomical Twilight 5:47 AM PDT 8:58 PM PDT
Moon 7:07 AM PDT (3/11) 7:36 PM PDT (3/11)
Length of Visible Light 12h 41m
Length of Day
11h 38m
Waning Crescent, 0% of the Moon is Illuminated
Mar 11
Waning Crescent
Mar 11
New
Mar 19
First Quarter
Mar 27
Full
Apr 2
Last Quarter

Hourly Weather History & Observations

Time (PDT) Temp. Windchill Dew Point Humidity Pressure Visibility Wind Dir Wind Speed Gust Speed Precip Events Conditions
12:00 AM 41.0 °F 38.0 °F 35.6 °F 81% 30.45 in 15.0 mi East 4.6 mph - N/A   Mostly Cloudy
1:00 AM 42.8 °F 40.1 °F 37.4 °F 81% 30.44 in 12.0 mi SE 4.6 mph - N/A   Overcast
2:00 AM 42.8 °F 39.3 °F 35.6 °F 76% 30.45 in 12.0 mi East 5.8 mph - N/A   Overcast
3:00 AM 41.0 °F 37.1 °F 35.6 °F 81% 30.44 in 10.0 mi East 5.8 mph - N/A   Overcast
3:40 AM 41.0 °F 39.0 °F - N/A% - 10.0 mi East 3.5 mph - N/A   Overcast
4:00 AM 41.0 °F 39.0 °F 35.6 °F 81% 30.44 in 8.0 mi East 3.5 mph - N/A   Overcast
4:51 AM 41.0 °F 39.0 °F - N/A% - 8.0 mi ENE 3.5 mph - N/A   Mostly Cloudy
5:00 AM 41 °F - 35 °F 72% 30.43 in 10 mi NE 2.3 mph - -   Mostly Cloudy
5:00 AM 41.0 °F 39.0 °F 35.6 °F 81% 30.43 in 10.0 mi ENE 3.5 mph - N/A   Mostly Cloudy
6:00 AM 41.0 °F 37.1 °F 35.6 °F 81% 30.43 in 10.0 mi East 5.8 mph - N/A   Overcast
6:08 AM 42.8 °F 38.6 °F - N/A% - 10.0 mi East 6.9 mph - N/A   Overcast
7:00 AM 42.8 °F 39.3 °F 35.6 °F 76% 30.43 in 12.0 mi East 5.8 mph - N/A   Overcast
7:06 AM 42.8 °F 39.3 °F - N/A% - 12.0 mi East 5.8 mph - N/A   Overcast
8:00 AM 42.8 °F 40.1 °F 35.6 °F 76% 30.43 in 12.0 mi East 4.6 mph - N/A   Mostly Cloudy
9:00 AM 42.8 °F 39.3 °F 37.4 °F 81% 30.43 in 8.0 mi East 5.8 mph - N/A   Mostly Cloudy
10:00 AM 44.6 °F 40.2 °F 37.4 °F 76% 30.43 in 8.0 mi East 8.1 mph - N/A   Mostly Cloudy
11:00 AM 46 °F - 36 °F 59% 30.42 in 15 mi East 9.2 mph - -   Mostly Cloudy
11:00 AM 46.4 °F 41.9 °F 35.6 °F 66% 30.42 in 15.0 mi East 9.2 mph - N/A   Mostly Cloudy
12:00 PM 46.4 °F 43.5 °F 37.4 °F 71% 30.41 in 15.0 mi ESE 5.8 mph - N/A   Mostly Cloudy
1:00 PM 48.2 °F - 35.6 °F 62% 30.39 in 20.0 mi SE 5.8 mph - N/A   Mostly Cloudy
2:00 PM 48.2 °F - 35.6 °F 62% 30.37 in 20.0 mi SSE 5.8 mph - N/A   Mostly Cloudy
3:00 PM 50.0 °F - 35.6 °F 58% 30.35 in 20.0 mi SW 8.1 mph - N/A   Overcast
4:00 PM 46.4 °F 42.4 °F 37.4 °F 71% 30.34 in 20.0 mi SW 8.1 mph - N/A   Overcast
5:00 PM 46 °F - 37 °F 61% 30.32 in 19 mi NW 3.5 mph - -   Overcast
5:00 PM 46.4 °F 45.2 °F 37.4 °F 71% 30.32 in 20.0 mi WNW 3.5 mph - N/A   Overcast
6:00 PM 46.4 °F 45.2 °F 37.4 °F 71% 30.29 in 20.0 mi WNW 3.5 mph - N/A   Overcast
7:00 PM 44.6 °F 42.2 °F 37.4 °F 76% 30.25 in 15.0 mi NNW 4.6 mph - N/A   Overcast
8:00 PM 46.4 °F 43.5 °F 35.6 °F 66% 30.22 in 15.0 mi NNE 5.8 mph - N/A   Overcast
8:55 PM 46.4 °F 42.9 °F - N/A% - 15.0 mi NE 6.9 mph - N/A Rain Light Rain
9:00 PM 46.4 °F 42.4 °F 35.6 °F 66% 30.20 in 15.0 mi ENE 8.1 mph - N/A Rain Light Rain
10:00 PM 44.6 °F 40.2 °F 35.6 °F 71% 30.19 in 10.0 mi ENE 8.1 mph - N/A Rain Light Rain
11:00 PM 43 °F - 35 °F 65% 30.16 in 7 mi East 17.3 mph - - Rain Light Rain
11:00 PM 42.8 °F 35.1 °F 35.6 °F 76% 30.16 in 8.0 mi East 16.1 mph - N/A Rain Light Rain